Home > Weather > Key West > Past weeks

Flag for USA Past Weather in Key West, Florida, USA — Yesterday and Last 2 Weeks

Now
79 °F

Sunny.


Feels Like: 84 °F
Forecast: 82 / 89 °F
Wind: 5 mph from Northeast

Location: Key West International Airport

Current Time: Aug 27, 2016 at 6:33:09 PM

Latest Report: Aug 27, 2016 at 5:53 PM


Visibility: 10 mi

Pressure: 29.88 "Hg

Humidity: 97%

Dew Point: 78 °F

Location of Key WestLocation

Past Weather in Key West — Graph

°F

Key West Temperature Yesterday

Maximum temperature yesterday: 90 °F (at 1:53 PM)
Minimum temperature yesterday: 79 °F (at 11:53 PM)
Average temperature yesterday: 85 °F

High & Low Weather Summary for the Past Weeks

 TemperatureHumidityPressure
High90 °F (Aug 22, 12:53 PM)100% (Aug 17, 5:01 AM)30.14 "Hg (Aug 17, 5:01 AM)
Low73 °F (Aug 27, 4:02 PM)61% (Aug 22, 2:53 PM)29.86 "Hg (Aug 27, 4:53 AM)
Average84 °F80%30.02 "Hg
* Reported Aug 12 4:53 PM — Aug 27 4:53 PM, Key West, Weather by CustomWeather, © 2016

Note: Actual official high and low records may vary slightly from our data, if they occured in-between our weather recording intervals... More about our weather records

Advertising

Key West Weather History for the Previous 24 Hours

Scroll right to see more
 ConditionsComfort  
Time TempWeatherWind HumidityBarometerVisibility
4:53 PM
Sat, Aug 27
76 °FLight rain. Broken clouds.6 mph100%29.87 "Hg10 mi
4:02 PM73 °FStrong thunderstorms. Fog.7 mph100%29.88 "Hg4 mi
2:53 PM84 °FPartly sunny.12 mph88%29.87 "Hg10 mi
1:53 PM80 °FThundershowers. Broken clouds.No wind100%29.90 "Hg10 mi
12:58 PM84 °FThunderstorms. Scattered clouds.8 mph91%29.91 "Hg10 mi
11:53 AM78 °FThunderstorms. Broken clouds.No wind100%29.93 "Hg10 mi
10:53 AM82 °FPartly sunny.5 mph91%29.92 "Hg10 mi
9:53 AM84 °FThundershowers. Passing clouds.7 mph91%29.90 "Hg10 mi
9:03 AM83 °FPassing clouds.8 mph94%29.90 "Hg10 mi
7:53 AM81 °FThundershowers. Passing clouds.5 mph97%29.89 "Hg10 mi
6:53 AM80 °FClear.5 mph100%29.88 "Hg10 mi
5:53 AM81 °FPassing clouds.5 mph97%29.87 "Hg10 mi
4:53 AM80 °FClear.5 mph94%29.86 "Hg10 mi
3:53 AM80 °FClear.7 mph96%29.88 "Hg10 mi
2:53 AM80 °FClear.7 mph96%29.89 "Hg10 mi
1:53 AM79 °FClear.6 mph97%29.90 "Hg10 mi
12:53 AM79 °FClear.9 mph97%29.91 "Hg10 mi
11:53 PM
Fri, Aug 26
79 °FLight rain. Partly cloudy.15 mph90%29.93 "Hg10 mi
10:53 PM83 °FLight rain. Overcast.13 mph85%29.95 "Hg10 mi
9:53 PM86 °FClear.5 mph77%29.92 "Hg10 mi
8:53 PM86 °FClear.7 mph80%29.92 "Hg10 mi
7:53 PM86 °FPassing clouds.7 mph80%29.92 "Hg10 mi
6:53 PM87 °FPassing clouds.10 mph77%29.89 "Hg10 mi
Weather by CustomWeather, © 2016

See weather overviewHow to use our weather pages